Time,TemperatureF,DewpointF,PressureIn,WindDirection,WindDirectionDegrees,WindSpeedMPH,WindSpeedGustMPH,Humidity,HourlyPrecipIn,Conditions,Clouds,dailyrainin,SolarRadiationWatts/m^2,SoftwareType,DateUTC
2013-03-23 00:05:00,31.2,24.0,29.80,WNW,286,0.0,0.0,75,0.00,,,0.00,0,weatherlink.com 1.10,2013-03-23 04:05:00,
2013-03-23 00:20:00,31.4,25.0,29.80,WNW,286,0.0,1.0,76,0.00,,,0.00,0,weatherlink.com 1.10,2013-03-23 04:20:00,
2013-03-23 00:35:00,31.5,25.0,29.80,WNW,286,0.0,1.0,77,0.00,,,0.00,0,weatherlink.com 1.10,2013-03-23 04:35:00,
2013-03-23 00:50:00,31.4,25.0,29.80,WNW,286,0.0,1.0,77,0.00,,,0.00,0,weatherlink.com 1.10,2013-03-23 04:50:00,
2013-03-23 01:05:00,31.2,25.0,29.79,WNW,286,0.0,1.0,78,0.00,,,0.00,0,weatherlink.com 1.10,2013-03-23 05:05:00,
2013-03-23 01:20:00,31.1,25.0,29.79,WNW,286,0.0,0.0,79,0.00,,,0.00,0,weatherlink.com 1.10,2013-03-23 05:20:00,
2013-03-23 01:36:00,30.9,25.0,29.79,WNW,286,0.0,2.0,79,0.00,,,0.00,0,weatherlink.com 1.10,2013-03-23 05:36:00,
2013-03-23 01:50:00,30.8,25.0,29.79,WNW,286,0.0,1.0,80,0.00,,,0.00,0,weatherlink.com 1.10,2013-03-23 05:50:00,
2013-03-23 02:05:00,30.8,25.0,29.79,WNW,286,2.0,2.0,80,0.00,,,0.00,0,weatherlink.com 1.10,2013-03-23 06:05:00,
2013-03-23 02:35:00,30.6,25.0,29.79,WNW,286,0.0,1.0,81,0.00,,,0.00,0,weatherlink.com 1.10,2013-03-23 06:35:00,
2013-03-23 02:50:00,30.5,25.0,29.78,WNW,284,0.0,3.0,81,0.00,,,0.00,0,weatherlink.com 1.10,2013-03-23 06:50:00,
2013-03-23 03:05:00,30.8,25.0,29.78,NNW,330,0.0,2.0,78,0.00,,,0.00,0,weatherlink.com 1.10,2013-03-23 07:05:00,
2013-03-23 03:20:00,31.6,24.0,29.77,WNW,296,0.0,4.0,73,0.00,,,0.00,0,weatherlink.com 1.10,2013-03-23 07:20:00,
2013-03-23 03:35:00,32.4,24.0,29.77,NNW,347,0.0,6.0,71,0.00,,,0.00,0,weatherlink.com 1.10,2013-03-23 07:35:00,
2013-03-23 03:50:00,33.0,24.0,29.77,SW,215,2.0,5.0,70,0.00,,,0.00,0,weatherlink.com 1.10,2013-03-23 07:50:00,
2013-03-23 04:05:00,33.4,24.0,29.77,South,173,2.0,5.0,68,0.00,,,0.00,0,weatherlink.com 1.10,2013-03-23 08:05:00,
2013-03-23 04:21:00,34.0,23.0,29.77,SSW,197,5.0,7.0,64,0.00,,,0.00,0,weatherlink.com 1.10,2013-03-23 08:21:00,
2013-03-23 04:37:00,34.2,23.0,29.76,NW,313,1.0,6.0,63,0.00,,,0.00,0,weatherlink.com 1.10,2013-03-23 08:37:00,
2013-03-23 04:50:00,34.2,23.0,29.77,WNW,297,0.0,4.0,63,0.00,,,0.00,0,weatherlink.com 1.10,2013-03-23 08:50:00,
2013-03-23 05:05:00,34.1,23.0,29.77,WNW,302,0.0,1.0,65,0.00,,,0.00,0,weatherlink.com 1.10,2013-03-23 09:05:00,
2013-03-23 05:20:00,33.7,23.0,29.77,NW,307,0.0,3.0,66,0.00,,,0.00,0,weatherlink.com 1.10,2013-03-23 09:20:00,
2013-03-23 05:35:00,33.5,24.0,29.78,NW,307,0.0,2.0,69,0.00,,,0.00,0,weatherlink.com 1.10,2013-03-23 09:35:00,
2013-03-23 05:50:00,33.1,24.0,29.78,NNW,329,1.0,2.0,70,0.00,,,0.00,0,weatherlink.com 1.10,2013-03-23 09:50:00,
2013-03-23 06:05:00,32.8,24.0,29.77,North,360,0.0,1.0,71,0.00,,,0.00,0,weatherlink.com 1.10,2013-03-23 10:05:00,
2013-03-23 06:20:00,32.4,24.0,29.77,North,360,0.0,2.0,71,0.00,,,0.00,0,weatherlink.com 1.10,2013-03-23 10:20:00,
2013-03-23 06:35:00,32.0,24.0,29.78,North,360,0.0,2.0,72,0.00,,,0.00,0,weatherlink.com 1.10,2013-03-23 10:35:00,
2013-03-23 06:50:00,31.5,24.0,29.78,North,360,0.0,1.0,73,0.00,,,0.00,0,weatherlink.com 1.10,2013-03-23 10:50:00,
2013-03-23 07:05:00,31.1,24.0,29.78,North,360,0.0,1.0,74,0.00,,,0.00,5,weatherlink.com 1.10,2013-03-23 11:05:00,
2013-03-23 07:20:00,30.9,24.0,29.78,North,360,0.0,1.0,74,0.00,,,0.00,11,weatherlink.com 1.10,2013-03-23 11:20:00,
2013-03-23 07:35:00,30.7,24.0,29.78,North,360,2.0,2.0,75,0.00,,,0.00,12,weatherlink.com 1.10,2013-03-23 11:35:00,
2013-03-23 07:50:00,30.5,23.0,29.78,North,360,0.0,1.0,75,0.00,,,0.00,16,weatherlink.com 1.10,2013-03-23 11:50:00,
2013-03-23 08:05:00,30.5,23.0,29.77,North,360,1.0,1.0,75,0.00,,,0.00,40,weatherlink.com 1.10,2013-03-23 12:05:00,
2013-03-23 08:20:00,31.5,24.0,29.78,NNW,340,0.0,4.0,75,0.00,,,0.00,44,weatherlink.com 1.10,2013-03-23 12:20:00,
2013-03-23 08:35:00,32.4,25.0,29.77,NNW,340,2.0,2.0,75,0.00,,,0.00,104,weatherlink.com 1.10,2013-03-23 12:35:00,
2013-03-23 08:50:00,33.8,25.0,29.77,NW,308,0.0,3.0,70,0.00,,,0.00,84,weatherlink.com 1.10,2013-03-23 12:50:00,
2013-03-23 09:05:00,34.6,25.0,29.77,NW,308,0.0,1.0,68,0.00,,,0.00,69,weatherlink.com 1.10,2013-03-23 13:05:00,
2013-03-23 09:20:00,35.1,25.0,29.77,NW,319,1.0,5.0,66,0.00,,,0.00,84,weatherlink.com 1.10,2013-03-23 13:20:00,
2013-03-23 09:35:00,35.5,25.0,29.77,NNW,327,2.0,6.0,67,0.00,,,0.00,74,weatherlink.com 1.10,2013-03-23 13:35:00,
2013-03-23 09:50:00,36.3,25.0,29.78,West,267,3.0,5.0,65,0.00,,,0.00,135,weatherlink.com 1.10,2013-03-23 13:50:00,
2013-03-23 10:05:00,36.3,24.0,29.78,SE,138,3.0,7.0,61,0.00,,,0.00,153,weatherlink.com 1.10,2013-03-23 14:05:00,
2013-03-23 10:20:00,36.4,23.0,29.78,WNW,282,4.0,7.0,58,0.00,,,0.00,116,weatherlink.com 1.10,2013-03-23 14:20:00,
2013-03-23 10:35:00,36.8,22.0,29.78,NW,323,3.0,9.0,56,0.00,,,0.00,352,weatherlink.com 1.10,2013-03-23 14:35:00,
2013-03-23 10:51:00,37.7,21.0,29.78,SE,131,3.0,9.0,52,0.00,,,0.00,824,weatherlink.com 1.10,2013-03-23 14:51:00,
2013-03-23 11:06:00,38.6,23.0,29.78,WSW,240,1.0,6.0,53,0.00,,,0.00,800,weatherlink.com 1.10,2013-03-23 15:06:00,
2013-03-23 11:21:00,39.7,22.0,29.78,South,186,1.0,6.0,50,0.00,,,0.00,805,weatherlink.com 1.10,2013-03-23 15:21:00,
2013-03-23 11:36:00,39.5,20.0,29.78,SE,124,3.0,10.0,46,0.00,,,0.00,918,weatherlink.com 1.10,2013-03-23 15:36:00,
2013-03-23 12:06:00,39.6,19.0,29.79,North,5,2.0,13.0,43,0.00,,,0.00,1020,weatherlink.com 1.10,2013-03-23 16:06:00,
2013-03-23 12:21:00,39.3,19.0,29.79,WSW,253,3.0,11.0,44,0.00,,,0.00,962,weatherlink.com 1.10,2013-03-23 16:21:00,
2013-03-23 12:36:00,40.4,20.0,29.79,NW,319,3.0,10.0,45,0.00,,,0.00,954,weatherlink.com 1.10,2013-03-23 16:36:00,
2013-03-23 12:51:00,41.5,20.0,29.80,West,264,5.0,8.0,43,0.00,,,0.00,940,weatherlink.com 1.10,2013-03-23 16:51:00,
2013-03-23 13:06:00,40.8,20.0,29.79,WNW,293,0.0,14.0,43,0.00,,,0.00,974,weatherlink.com 1.10,2013-03-23 17:06:00,
2013-03-23 13:21:00,41.3,18.0,29.79,SSE,149,1.0,10.0,40,0.00,,,0.00,130,weatherlink.com 1.10,2013-03-23 17:21:00,
2013-03-23 13:51:00,40.8,19.0,29.79,WNW,292,3.0,12.0,41,0.00,,,0.00,939,weatherlink.com 1.10,2013-03-23 17:51:00,
2013-03-23 14:06:00,41.4,20.0,29.78,SW,223,0.0,11.0,42,0.00,,,0.00,958,weatherlink.com 1.10,2013-03-23 18:06:00,
2013-03-23 14:21:00,40.9,19.0,29.78,NNW,336,3.0,8.0,42,0.00,,,0.00,1113,weatherlink.com 1.10,2013-03-23 18:21:00,
2013-03-23 14:36:00,41.0,19.0,29.78,North,355,5.0,11.0,41,0.00,,,0.00,925,weatherlink.com 1.10,2013-03-23 18:36:00,
2013-03-23 14:51:00,42.3,20.0,29.77,WSW,248,3.0,10.0,41,0.00,,,0.00,905,weatherlink.com 1.10,2013-03-23 18:51:00,
2013-03-23 15:06:00,42.7,20.0,29.77,NNW,333,1.0,12.0,40,0.00,,,0.00,144,weatherlink.com 1.10,2013-03-23 19:06:00,
2013-03-23 15:36:00,41.7,19.0,29.77,NW,320,2.0,9.0,40,0.00,,,0.00,803,weatherlink.com 1.10,2013-03-23 19:36:00,
2013-03-23 15:51:00,42.3,19.0,29.77,West,273,7.0,11.0,40,0.00,,,0.00,724,weatherlink.com 1.10,2013-03-23 19:51:00,
2013-03-23 16:06:00,42.3,19.0,29.77,NNW,329,2.0,6.0,40,0.00,,,0.00,693,weatherlink.com 1.10,2013-03-23 20:06:00,
2013-03-23 16:21:00,44.0,20.0,29.77,North,9,5.0,8.0,38,0.00,,,0.00,668,weatherlink.com 1.10,2013-03-23 20:21:00,
2013-03-23 16:36:00,43.4,19.0,29.77,West,261,2.0,9.0,37,0.00,,,0.00,594,weatherlink.com 1.10,2013-03-23 20:36:00,
2013-03-23 16:51:00,43.0,19.0,29.77,WSW,238,2.0,12.0,38,0.00,,,0.00,577,weatherlink.com 1.10,2013-03-23 20:51:00,
2013-03-23 17:06:00,42.6,18.0,29.77,WNW,288,3.0,12.0,38,0.00,,,0.00,77,weatherlink.com 1.10,2013-03-23 21:06:00,
2013-03-23 17:21:00,41.5,19.0,29.78,SE,142,2.0,10.0,40,0.00,,,0.00,418,weatherlink.com 1.10,2013-03-23 21:21:00,
2013-03-23 17:36:00,41.1,19.0,29.78,NW,324,0.0,7.0,41,0.00,,,0.00,116,weatherlink.com 1.10,2013-03-23 21:36:00,
2013-03-23 17:51:00,41.2,18.0,29.78,NNW,346,1.0,8.0,40,0.00,,,0.00,95,weatherlink.com 1.10,2013-03-23 21:51:00,
2013-03-23 18:06:00,40.8,17.0,29.80,ESE,118,4.0,11.0,39,0.00,,,0.00,65,weatherlink.com 1.10,2013-03-23 22:06:00,
2013-03-23 18:21:00,40.2,18.0,29.80,SE,145,4.0,11.0,40,0.00,,,0.00,39,weatherlink.com 1.10,2013-03-23 22:21:00,
2013-03-23 18:36:00,39.6,18.0,29.81,NW,323,3.0,8.0,42,0.00,,,0.00,28,weatherlink.com 1.10,2013-03-23 22:36:00,
2013-03-23 18:51:00,38.8,18.0,29.82,SSW,195,2.0,7.0,43,0.00,,,0.00,14,weatherlink.com 1.10,2013-03-23 22:51:00,
2013-03-23 19:06:00,37.9,18.0,29.82,NNW,348,2.0,10.0,44,0.00,,,0.00,0,weatherlink.com 1.10,2013-03-23 23:06:00,
2013-03-23 19:21:00,37.4,18.0,29.82,NNW,334,4.0,7.0,46,0.00,,,0.00,0,weatherlink.com 1.10,2013-03-23 23:21:00,
2013-03-23 19:51:00,36.9,18.0,29.84,NNW,340,5.0,10.0,47,0.00,,,0.00,0,weatherlink.com 1.10,2013-03-23 23:51:00,
2013-03-23 20:06:00,36.8,18.0,29.84,NNW,342,4.0,4.0,47,0.00,,,0.00,0,weatherlink.com 1.10,2013-03-24 00:06:00,
2013-03-23 20:21:00,36.6,20.0,29.85,South,176,3.0,6.0,51,0.00,,,0.00,0,weatherlink.com 1.10,2013-03-24 00:21:00,
2013-03-23 20:36:00,36.3,19.0,29.86,North,350,2.0,9.0,50,0.00,,,0.00,0,weatherlink.com 1.10,2013-03-24 00:36:00,
2013-03-23 20:51:00,36.0,19.0,29.87,SW,235,3.0,7.0,50,0.00,,,0.00,0,weatherlink.com 1.10,2013-03-24 00:51:00,
2013-03-23 21:21:00,35.0,17.0,29.87,NNW,339,1.0,7.0,49,0.00,,,0.00,0,weatherlink.com 1.10,2013-03-24 01:21:00,
2013-03-23 21:36:00,34.6,18.0,29.87,West,266,2.0,5.0,51,0.00,,,0.00,0,weatherlink.com 1.10,2013-03-24 01:36:00,
2013-03-23 21:51:00,34.3,18.0,29.87,SW,219,2.0,6.0,52,0.00,,,0.00,0,weatherlink.com 1.10,2013-03-24 01:51:00,
2013-03-23 22:06:00,34.1,18.0,29.87,NNE,17,0.0,3.0,52,0.00,,,0.00,0,weatherlink.com 1.10,2013-03-24 02:06:00,
2013-03-23 22:21:00,33.9,19.0,29.87,North,5,0.0,7.0,54,0.00,,,0.00,0,weatherlink.com 1.10,2013-03-24 02:21:00,
2013-03-23 22:36:00,33.6,19.0,29.87,NW,316,2.0,4.0,55,0.00,,,0.00,0,weatherlink.com 1.10,2013-03-24 02:36:00,
2013-03-23 22:52:00,33.3,19.0,29.86,WNW,301,0.0,1.0,56,0.00,,,0.00,0,weatherlink.com 1.10,2013-03-24 02:52:00,
2013-03-23 23:06:00,33.2,20.0,29.87,WSW,241,0.0,3.0,58,0.00,,,0.00,0,weatherlink.com 1.10,2013-03-24 03:06:00,
2013-03-23 23:21:00,33.1,20.0,29.87,South,185,0.0,5.0,59,0.00,,,0.00,0,weatherlink.com 1.10,2013-03-24 03:21:00,
2013-03-23 23:36:00,33.0,20.0,29.87,SSE,158,0.0,2.0,60,0.00,,,0.00,0,weatherlink.com 1.10,2013-03-24 03:36:00,
2013-03-23 23:51:00,32.6,20.0,29.86,SSE,158,1.0,2.0,61,0.00,,,0.00,0,weatherlink.com 1.10,2013-03-24 03:51:00,